Yakutat, AK

9:04 AM AKDT on June 21, 2018 (GMT -0800)
Yakutat

Weather History for PAYA - August, 2017

Change the Weather History Date:

Sunday, August 13, 2017

  Actual Average Record
Temperature  
Mean Temperature 56 °F 55 °F  
Max Temperature 61 °F 61 °F 76 °F (1963)
Min Temperature 50 °F 48 °F 34 °F (1965)
Degree Days  
Heating Degree Days 10 10  
Month to date heating degree days 130  
Since 1 June heating degree days 888  
Since 1 July heating degree days 462  
Cooling Degree Days 0    
Month to date cooling degree days  
Year to date cooling degree days  
Since 1 June cooling degree days  
Growing Degree Days 6 (Base 50)    
Moisture  
Dew Point 54 °F    
Average Humidity 92    
Maximum Humidity 97    
Minimum Humidity 75    
Precipitation  
Precipitation 0.16 in 0.44 in 3.33 in (1961)
Month to date precipitation 5.21  
Year to date precipitation 72.44  
Snow  
Snow 0.00 in 0.00 in 0.00 in (2016)
Month to date snowfall 0.0  
Since 1 June snowfall 0.0  
Since 1 July snowfall 0.0  
Snow Depth -    
Sea Level Pressure  
Sea Level Pressure 29.54 in    
Wind  
Wind Speed 4 mph (SSE)    
Max Wind Speed 14 mph    
Max Gust Speed 21 mph    
Visibility 6 miles    
Events Rain    
T = Trace of Precipitation, MM = Missing Value Source: NWS Daily Summary

Daily Weather History Graph

Daily Weather History Graph

Search for Another Location

Airport or City:

Astronomy

Aug. 13, 2017 Rise Set
Actual Time 5:31 AM AKDT 9:13 PM AKDT
Civil Twilight 4:40 AM AKDT 10:03 PM AKDT
Nautical Twilight 3:24 AM AKDT 11:18 PM AKDT
Astronomical Twilight 1:55 AM AKDT 12:50 AM AKDT
Moon 11:19 PM AKDT (8/13) 1:09 PM AKDT (8/13)
Length of Visible Light 17h 23m
Length of Day
15h 41m
Waning Gibbous, 64% of the Moon is Illuminated
Aug 13
Waning Gibbous
Aug 14
Last Quarter
Aug 21
New
Aug 29
First Quarter
Sep 5
Full

Hourly Weather History & Observations

Time (AKDT) Temp. Dew Point Humidity Pressure Visibility Wind Dir Wind Speed Gust Speed Precip Events Conditions
12:53 AM 57.0 °F 55.0 °F 93% 29.47 in 10.0 mi ENE 3.5 mph - N/A   Overcast
1:53 AM 57.0 °F 55.0 °F 93% 29.47 in 10.0 mi Calm Calm - 0.01 in Rain Light Rain
2:53 AM 55.9 °F 55.0 °F 97% 29.47 in 10.0 mi Calm Calm - 0.00 in   Overcast
3:53 AM 55.9 °F 55.0 °F 97% 29.49 in 10.0 mi Calm Calm - N/A   Overcast
4:53 AM 54.0 °F 53.1 °F 97% 29.49 in 8.0 mi ESE 4.6 mph - 0.00 in Rain Light Rain
5:53 AM 55.0 °F 54.0 °F 96% 29.50 in 4.0 mi Calm Calm - 0.02 in Rain Light Rain
5:59 AM 55.0 °F 54.0 °F 96% 29.50 in 4.0 mi Calm Calm - 0.00 in Rain Light Rain
6:10 AM 55.0 °F 53.1 °F 93% 29.50 in 1.8 mi Calm Calm - 0.01 in Rain Light Rain
6:25 AM 55.0 °F 54.0 °F 96% 29.50 in 1.2 mi Calm Calm - 0.03 in Rain Light Rain
6:32 AM 55.0 °F 54.0 °F 96% 29.50 in 2.0 mi Calm Calm - 0.04 in Rain Light Rain
6:42 AM 55.0 °F 54.0 °F 96% 29.50 in 4.0 mi ESE 3.5 mph - 0.04 in Rain Light Rain
6:47 AM 55.4 °F 53.6 °F 94% 29.50 in 1.8 mi Calm Calm - 0.05 in Rain Rain
6:53 AM 55.0 °F 54.0 °F 96% 29.51 in 1.2 mi ESE 3.5 mph - 0.07 in Rain Rain
7:03 AM 55.0 °F 54.0 °F 96% 29.50 in 1.8 mi East 4.6 mph - 0.02 in Rain Light Rain
7:09 AM 55.0 °F 54.0 °F 96% 29.50 in 3.0 mi East 5.8 mph - 0.02 in Rain Light Rain
7:17 AM 55.0 °F 54.0 °F 96% 29.50 in 5.0 mi East 6.9 mph - 0.03 in Rain Light Rain
7:53 AM 55.9 °F 55.0 °F 97% 29.50 in 10.0 mi East 6.9 mph - 0.03 in   Overcast
8:53 AM 57.0 °F 55.0 °F 93% 29.51 in 10.0 mi ESE 5.8 mph - N/A   Overcast
9:02 AM 57.0 °F 55.0 °F 93% 29.51 in 10.0 mi ESE 4.6 mph - N/A   Overcast
9:37 AM 57.0 °F 55.9 °F 96% 29.52 in 2.0 mi SE 5.8 mph - 0.00 in Rain Light Rain
9:44 AM 57.0 °F 55.9 °F 96% 29.52 in 1.8 mi SE 6.9 mph - 0.01 in Rain Light Rain
9:53 AM 57.9 °F 55.9 °F 93% 29.52 in 2.0 mi SE 6.9 mph - 0.02 in Rain Light Rain
10:03 AM 57.9 °F 55.9 °F 93% 29.52 in 7.0 mi ESE 8.1 mph - 0.00 in   Overcast
10:53 AM 59.0 °F 57.0 °F 93% 29.53 in 9.0 mi SE 8.1 mph - 0.00 in   Overcast
11:01 AM 57.9 °F 57.0 °F 97% 29.53 in 1.8 mi SE 8.1 mph - 0.01 in Rain Light Rain
11:14 AM 57.9 °F 57.0 °F 97% 29.53 in 3.0 mi ESE 6.9 mph - 0.02 in Rain Light Rain
11:30 AM 57.9 °F 57.0 °F 97% 29.52 in 2.0 mi SE 6.9 mph - 0.03 in Rain Light Rain
11:53 AM 59.0 °F 57.0 °F 93% 29.53 in 4.0 mi SE 6.9 mph - 0.04 in Rain Light Rain
12:16 PM 57.9 °F 57.0 °F 97% 29.53 in 2.5 mi South 9.2 mph - 0.02 in Rain Light Rain
12:24 PM 57.9 °F 57.0 °F 97% 29.53 in 4.0 mi SW 13.8 mph 17.3 mph 0.02 in Rain Light Rain
12:42 PM 57.0 °F 55.0 °F 93% 29.54 in 6.0 mi WSW 10.4 mph - 0.03 in Rain Light Rain
12:53 PM 57.0 °F 55.9 °F 96% 29.55 in 6.0 mi SW 8.1 mph - 0.03 in Rain Light Rain
12:59 PM 57.9 °F 55.9 °F 93% 29.54 in 1.8 mi SW 6.9 mph - 0.01 in Rain Rain
1:13 PM 57.0 °F 55.0 °F 93% 29.55 in 3.0 mi SW 9.2 mph 17.3 mph 0.04 in Rain Light Rain
1:53 PM 60.1 °F 57.0 °F 90% 29.56 in 10.0 mi SSW 8.1 mph - 0.05 in   Overcast
2:53 PM 60.1 °F 55.0 °F 83% 29.57 in 10.0 mi SW 10.4 mph - 0.00 in   Mostly Cloudy
3:01 PM 60.1 °F 55.0 °F 83% 29.57 in 10.0 mi SSW 8.1 mph - N/A   Overcast
3:18 PM 60.1 °F 55.0 °F 83% 29.57 in 10.0 mi SSW 9.2 mph - N/A   Overcast
3:53 PM 60.1 °F 55.0 °F 83% 29.58 in 10.0 mi SSW 8.1 mph - N/A   Overcast
4:53 PM 60.1 °F 55.0 °F 83% 29.58 in 10.0 mi SSW 8.1 mph - N/A   Mostly Cloudy
5:17 PM 55.9 °F 53.1 °F 90% 29.59 in 4.0 mi SW 10.4 mph 20.7 mph 0.01 in Rain Light Rain
5:53 PM 57.0 °F 53.1 °F 87% 29.59 in 10.0 mi SW 4.6 mph - 0.02 in   Overcast
6:10 PM 57.9 °F 54.0 °F 87% 29.59 in 10.0 mi SSW 6.9 mph - N/A   Overcast
6:33 PM 59.0 °F 54.0 °F 83% 29.59 in 10.0 mi Variable 5.8 mph - N/A   Overcast
6:53 PM 59.0 °F 51.1 °F 75% 29.60 in 10.0 mi SW 6.9 mph - N/A   Mostly Cloudy
7:53 PM 57.0 °F 50.0 °F 77% 29.60 in 10.0 mi SSW 5.8 mph - N/A   Overcast
8:53 PM 55.0 °F 48.0 °F 77% 29.62 in 10.0 mi SSW 3.5 mph - 0.00 in   Mostly Cloudy
9:53 PM 50.0 °F 48.0 °F 93% 29.63 in 10.0 mi Calm Calm - N/A   Scattered Clouds
10:53 PM 50.0 °F 48.0 °F 93% 29.64 in 10.0 mi NE 3.5 mph - N/A   Mostly Cloudy
11:20 PM 50.0 °F 48.0 °F 93% 29.64 in 10.0 mi NE 4.6 mph - 0.00 in Rain Light Rain
11:58 PM 51.1 °F 48.9 °F 92% 29.66 in 2.5 mi Variable 3.5 mph - 0.02 in Rain Heavy Rain